www.pogodaiklimat.ru

Погода и климат >> Архив погоды >> Аруба >> Королевы Беатрикс аэропорт


ПОГОДА Королевы Беатрикс аэропорту

  • Прогноз погоды Королевы Беатрикс аэропорту
  • Монитор погоды Королевы Беатрикс аэропорту

АРХИВ ПОГОДЫ Королевы Беатрикс аэропорту

Время (UTC), дата Ветер
(напр.,м/с)
 
Видим.   Явления Облачность Т
(С)
Тd
(С)
f
(%)
Тe
(С)
Тes
(С)
Комфортность P
(гПа)
Po
(гПа)
Тmin
(С)
Tmax
(С)
R
(мм)
R24
(мм)
S
(см)
21 16.08 В 8 20 км мгла 8/3 600 м
[Cu med, cong Ac trans Ci fib]
+30.3 +24.6 72 +43 +43 опасность
перегрева
1013.6 1013.2
00 17.08 В 6 18 км мгла 8/3 480 м
[Cu med, cong Ci fib]
+28.8 +25.3 81 +42 +42 опасность
перегрева
1014.4 1014.0 +27.7 +33.0
03 17.08 В 6 18 км мгла 9/1 480 м
[Cu med, cong Ac trans Ci fib]
+28.4 +24.9 81 +41 +41 опасность
перегрева
1015.7 1015.3
06 17.08 В 5 18 км мгла 8/1 480 м
[Cu med, cong Ac trans Ci fib]
+28.0 +24.7 82 +40 +40 очень
душно
1014.8 1014.4
09 17.08 В 5 18 км мгла 9/1 480 м
[Cu med, cong Ci fib]
+27.6 +24.3 82 +39 +39 очень
душно
1013.8 1013.4
12 17.08 В 6 15 км мгла 9/1 540 м
[Cu med, cong Ci fib]
+28.8 +24.5 78 +41 +42 опасность
перегрева
1014.3 1013.9 +27.5 +33.0
15 17.08 В 7 18 км мгла 9/3 750 м
[Cu med, cong Ci fib]
+31.4 +23.2 62 +42 +45 опасность
перегрева
1015.2 1014.8
18 17.08 В 7 18 км мгла 9/5 840 м
[Cu med, cong Ci fib]
+31.1 +23.4 64 +42 +44 опасность
перегрева
1013.5 1013.1
21 17.08 В 7 18 км мгла 8/4 750 м
[Cu med, cong Ci fib]
+30.9 +24.5 69 +44 +44 опасность
перегрева
1012.0 1011.6
00 18.08 В 7 18 км мгла 8/1 540 м
[Cu med, cong Ci fib]
+28.6 +24.3 78 +40 +40 очень
душно
1012.2 1011.8 +27.5 +33.2
03 18.08 В 7 18 км мгла 8/3 540 м
[Cu med, cong Ci fib]
+28.4 +23.9 77 +39 +39 очень
душно
1014.4 1014.0
06 18.08 В 7 18 км мгла 9/4 480 м
[Cu med, cong Ci fib]
+28.1 +23.8 78 +39 +39 очень
душно
1013.6 1013.2
09 18.08 В 6 18 км в посл. час ливневой дождь 9/4 500 м
[Cu med, cong Ci fib]
+26.9 +24.6 87 +38 +38 очень
душно
1012.8 1012.4 1
12 18.08 В 7 20 км мгла 8/1 570 м
[Cu med, cong Ac trans Ci fib]
+28.0 +24.9 83 +40 +41 очень
душно
1013.4 1013.0 +26.3 +33.2
15 18.08 В 8 35 км 6/5 750 м
[Cu med, cong Ac trans Ci fib]
+31.3 +23.6 64 +42 +44 опасность
перегрева
1013.7 1013.3
18 18.08 В 9 35 км 8/6 800 м
[Cu med, cong Ci fib]
+32.6 +24.6 63 +46 +46 опасность
перегрева
1012.4 1012.0
21 18.08 В 10 40 км 4/1 700 м
[Cu med, cong Ci fib]
+30.9 +24.5 69 +44 +44 опасность
перегрева
1010.0 1009.6
00 19.08 В 10 35 км 1/1 540 м
[Cu hum Ci fib]
+28.6 +25.1 81 +41 +41 опасность
перегрева
1010.9 1010.5 +26.3 +33.3
03 19.08 В 10 35 км 1/1 540 м
[Cu med, cong Ci fib]
+28.5 +25.0 81 +41 +41 опасность
перегрева
1012.7 1012.3
06 19.08 ЮВ 9 35 км 3/3 500 м
[Cu med, cong Ci fib]
+28.3 +24.6 80 +40 +40 очень
душно
1012.4 1012.0
09 19.08 ЮВ 9 35 км 3/3 500 м
[Cu med, cong Ci fib]
+28.2 +24.5 80 +40 +40 очень
душно
1011.5 1011.1
12 19.08 ЮВ 9 35 км 5/5 540 м
[Cu med, cong Ci fib]
+29.3 +24.3 75 +41 +41 опасность
перегрева
1013.0 1012.6 +27.7 +33.3
15 19.08 В 10 35 км 5/5 720 м
[Cu med, cong Ci fib]
+31.7 +24.0 64 +44 +44 опасность
перегрева
1013.2 1012.8
18 19.08 В 11 40 км 3/3 720 м
[Cu med, cong Ci fib]
+32.7 +24.7 63 +46 +46 опасность
перегрева
1011.3 1010.9
21 19.08 В 12 40 км 3/3 700 м
[Cu med, cong Ci fib]
+31.0 +24.8 70 +44 +44 опасность
перегрева
1009.9 1009.5
00 20.08 В 12 40 км 3/1 570 м
[Cu hum Ci fib]
+28.8 +24.7 79 +41 +41 опасность
перегрева
1009.9 1009.5 +27.9 +33.1
03 20.08 В 10 40 км 3/1 500 м
[Cu hum Ci fib]
+28.7 +24.4 78 +41 +41 опасность
перегрева
1012.1 1011.7
06 20.08 В 7 40 км 3/1 500 м
[Cu hum Ci fib]
+28.2 +24.7 81 +40 +40 очень
душно
1011.9 1011.5
09 20.08 ЮВ 8 40 км 3/1 500 м
[Cu med, cong Ci fib]
+28.3 +24.4 79 +40 +40 очень
душно
1012.1 1011.7
12 20.08 В 10 40 км 4/4 600 м
[Cu med, cong Ci fib]
+29.3 +24.3 75 +41 +41 опасность
перегрева
1013.6 1013.2 +28.0 +33.1
15 20.08 ЮВ 9 40 км 8/8 570 м
[Cu med, cong Ci fib]
+31.7 +24.2 65 +44 +44 опасность
перегрева
1015.1 1014.7
18 20.08 В 11 40 км 4/4 750 м
[Cu med, cong Ci fib]
+32.4 +24.9 65 +46 +46 опасность
перегрева
1012.6 1012.2
21 20.08 В 12 40 км 3/1 750 м
[Cu med, cong Ci fib]
+30.7 +24.5 70 +43 +43 опасность
перегрева
1010.2 1009.8
00 21.08 В 11 40 км 3/1 600 м
[Cu med, cong Ci fib]
+29.0 +24.2 75 +40 +40 очень
душно
1011.4 1011.0 +28.0 +33.7
03 21.08 В 8 40 км 3/3 540 м
[Cu med, cong Ci fib]
+28.5 +24.6 79 +40 +40 очень
душно
1014.2 1013.8
06 21.08 В 7 40 км 3/3 540 м
[Cu med, cong Ci fib]
+28.1 +24.4 80 +39 +39 очень
душно
1013.9 1013.5
09 21.08 В 7 40 км 3/3 540 м
[Cu med, cong Ci fib]
+28.0 +24.3 80 +39 +39 очень
душно
1013.2 1012.8
12 21.08 В 8 40 км 3/3 570 м
[Cu med, cong Ci fib]
+29.2 +24.2 74 +41 +41 опасность
перегрева
1014.2 1013.8 +27.8 +33.7
15 21.08 В 10 50 км 4/3 720 м
[Cu med, cong Ci fib]
+31.5 +23.3 62 +42 +43 опасность
перегрева
1015.0 1014.6
18 21.08 В 9 50 км 4/3 800 м
[Cu med, cong Ci fib]
+32.5 +23.7 60 +44 +45 опасность
перегрева
1012.4 1012.0
21 21.08 В 9 50 км 4/4 660 м
[Cu med, cong Ci fib]
+30.7 +24.5 70 +43 +44 опасность
перегрева
1011.0 1010.6
00 22.08 В 8 50 км 1/1 540 м
[Cu med, cong Ci fib]
+28.6 +24.7 79 +41 +41 опасность
перегрева
1011.6 1011.2 +27.8 +33.4
03 22.08 В 8 50 км 1/1 540 м
[Cu med, cong Ci fib]
+28.4 +24.5 79 +40 +40 очень
душно
1013.4 1013.0
06 22.08 В 7 50 км 3/3 540 м
[Cu med, cong Ci fib]
+28.2 +24.3 79 +39 +39 очень
душно
1013.3 1012.9
09 22.08 ЮВ 5 50 км 3/3 540 м
[Cu med, cong Ci fib]
+27.7 +24.4 82 +39 +39 очень
душно
1013.0 1012.6
12 22.08 В 8 50 км 5/3 600 м
[Cu med, cong Ci fib]
+29.0 +24.0 74 +40 +40 очень
душно
1013.7 1013.3 +27.5 +33.4
15 22.08 ЮВ 9 50 км 8/1 840 м
[Cu med, cong Ci fib]
+32.3 +23.2 59 +43 +44 опасность
перегрева
1014.0 1013.6
18 22.08 В 10 50 км 8/1 800 м
[Cu med, cong Ci fib]
+32.4 +24.9 65 +46 +46 опасность
перегрева
1011.7 1011.3
21 22.08 В 10 50 км 8/1 630 м
[Cu med, cong Ci fib]
+30.9 +24.7 70 +44 +44 опасность
перегрева
1010.2 1009.8
00 23.08 В 10 50 км 6/1 570 м
[Cu med, cong Ci fib]
+28.8 +24.9 79 +41 +41 опасность
перегрева
1011.2 1010.8 +27.5 +33.5
03 23.08 В 8 50 км 6/1 540 м
[Cu med, cong Ci fib]
+28.7 +24.8 79 +41 +41 опасность
перегрева
1013.4 1013.0
06 23.08 В 10 50 км 6/1 540 м
[Cu med, cong Ci fib]
+28.3 +24.8 81 +40 +40 очень
душно
1012.1 1011.7
09 23.08 В 8 50 км 6/1 540 м
[Cu med, cong Ci fib]
+28.2 +24.3 79 +39 +39 очень
душно
1012.1 1011.7
12 23.08 В 9 50 км 6/3 540 м
[Cu med, cong Ci fib]
+29.4 +24.6 75 +42 +42 опасность
перегрева
1013.4 1013.0 +28.0 +33.5
15 23.08 В 11 50 км 9/8 700 м
[Cu med, cong Ci fib]
+31.7 +24.2 65 +44 +44 опасность
перегрева
1013.9 1013.5

 

Местоположение метеостанции Королевы Беатрикс аэропорт (Аруба): широта 12.50 долгота -70.01 высота над уровнем моря 5 м.

В архиве по умолчанию представлена погода Королевы Беатрикс аэропорту за последнюю неделю. Архивные данные за месяц целиком и за предыдущие месяцы, начиная с января 2011 года, Вы можете получить, выбрав интересующий диапазон дат из раскрывающегося списка и нажав кнопку "Ввод!".


*Определитесь, кто Вы:
робот инопланетянин человек

Внимание! Время в таблицах - всемирное. Для получения местного времени необходимо прибавить поправку, которая равна -4 ч.

Смотрите также архив погоды в соседних городах и на ближайших метеорологических станциях:

Погода в Кюрасао аэропорту (Нидерландские Антилы) (119 км)
Погода в Коро (Венесуэла) (125 км)
Погода в Баркисимето (Венесуэла) (281 км)
Погода в Маракайбо (Венесуэла) (284 км)
Погода в Маракайбо аэропорту (Венесуэла) (285 км)
Погода в Мене Гранде (Венесуэла) (315 км)
Погода в Риоаче (Колумбия) (335 км)
Погода в Акаригуа (Венесуэла) (339 км)
Погода в Валенсии (Венесуэла) (344 км)
Погода в Валере (Венесуэла) (356 км)

Пояснения к столбцам:

Ветер - указаны скорость ветра в м/с - средняя за 10 мин, порывы в срок и между сроками (в фигурных скобках) и направление, откуда дует ветер: С - северный, СВ - северо-восточный, В - восточный, ЮВ - юго-восточный, Ю - южный, ЮЗ - юго-западный, З - западный, СЗ - северо-западный.
Видимость - горизонтальная дальность видимости в метрах или километрах. При видимости от 1 до 10 км при отсутствии осадков обычно наблюдается дымка, при ухудшении видимости до 1 км и менее - туман. В сухую погоду видимость может ухудшаться дымом, пылью или мглою.
Явления - указаны атмосферные явления, наблюдавшиеся в срок или в последний час перед сроком; фигурными скобками обозначены явления, наблюдавшиеся между сроками (за 1-3 часа до срока); квадратными скобками обозначены град или гололедные отложения с указанием их диаметра в мм.
Облачность - указаны через наклонную черту общая и нижняя облачность в баллах и высота нижней границы облаков в метрах; квадратными скобками обозначены формы облаков: Ci - перистые, Cs - перисто-слоистые, Cc - перисто-кучевые, Ac - высококучевые, As - высокослоистые, Sc - слоисто-кучевые, Ns - слоисто-дождевые, Cu - кучевые, Cb - кучево-дождевые. Подробнее классификацию облаков см. в Атласе облаков (PDF).
T - Температура воздуха - температура, измеренная на высоте 2 м над землей.
Td - Температура точки росы - температура, при понижении до которой содержащийся в воздухе водяной пар достигнет насыщения.
f - Относительная влажность воздуха - влажноcть воздуха, измеренная на высоте 2 м над землей.
Te - Эффективная температура - температура, которую ощущает одетый по сезону человек в тени. Характеристика душности погоды. При расчете учитывается влияние влажности воздуха и скорости ветра на теплоощущения человека.
Tes - Эффективная температура на солнце - температура, которую ощущает человек, с поправкой на солнечный нагрев. Характеристика знойности погоды. Зависит от высоты солнца над горизонтом, облачности и скорости ветра. Ночью, в пасмурную погоду, а также при ветре 12 м/с и более поправка равна нулю.
P - Атмосферное давление - приведенное к уровню моря атмосферное давление.
Po - Атмосферное давление - измеренное на уровне метеостанции атмосферное давление.
Tmin - Минимальная температура - минимум температуры воздуха на высоте 2 м над землей.
Tmax - Максимальная температура - максимум температуры воздуха на высоте 2 м над землей.
R - Количество осадков - Количество выпавших осадков за период времени, мм. При наведении курсора мыши на число - период времени, за который выпало указанное количество осадков.
R24 - Количество осадков - Количество выпавших осадков за 24 часа, мм.
S - Снежный покров - Высота снежного покрова, см. При наведении курсора мыши на число - состояние снежного покрова и степень покрытия местности в баллах.